Content
SEND FEEDBACK

Daily
Averages
Monthly
Summary
Canada

ST. JOHN'S, NEWFOUNDLAND


Home > North America > Canada > Newfoundland
Elevation: 459 feet     Latitude: 47 37N     Longitude: 052 44W

WEATHER
 
SELECT A DAY
Number of Records: 206,701;   Date Range: 1/1/95 - 10/19/14
 
SHARE

PRINT THIS DATA

[ ← Previous Day ]
WEATHER ALMANAC - JANUARY 29, 2014
[ Next Day → ]
[ °C ]   °F
Weather ElementAverageHighLow
Temperature17.4 °F21.2 °F (8:30 pm)14 °F (1:30 am)
Dewpoint13.2 °F19.4 °F (8:01 pm)5 °F (1:30 am)
Humidity83.6 %100 % (8:01 pm)56 % (2:30 am)
Barometer30.00 in30.27 in (7:30 am)29.55 in (10:30 pm)
Wind Speed9.8 mph21.9 mph (1:30 am)
Wind Gust31.1 mph (2:30 am)
Weather ElementAverage
Visibility6.5 mi
Wind DirectionSSE (161.8 °)

Weather ElementTotal
Precipitation---
Heating Degree Days47.4 (Base 65)
Averaged from 38 records on January 29, 2014
WEATHER CONDITIONS BREAKOUT
WIND DIRECTION BREAKOUT
WEATHER BY HOUR - JANUARY 29, 2014
[ °C ]   °F
Local TimeTemperatureDewpointHumidityBarometerVisibilityWind DirectionWind SpeedGust SpeedPrecipitationEventsConditions
1:30 AM14.0 °F5.0 °F67 %30.15 in15.0 miWest (280°)21.9 mph29.9 mphMostly Cloudy
2:30 AM14.0 °F5.0 °F56 %30.17 in15.0 miWest (280°)21.9 mphPartly Cloudy
2:30 AM14.0 °F5.0 °F67 %30.17 in15.0 miWest (280°)20.7 mph31.1 mphScattered Clouds
3:30 AM14.0 °F5.0 °F67 %30.19 in15.0 miWest (270°)16.1 mph23.0 mphScattered Clouds
4:30 AM14.0 °F5.0 °F67 %30.24 in15.0 miWNW (300°)12.7 mphMostly Cloudy
5:30 AM14.0 °F6.8 °F73 %30.24 in15.0 miWest (280°)13.8 mphMostly Cloudy
6:30 AM14.0 °F6.8 °F73 %30.26 in15.0 miWest (280°)8.1 mphMostly Cloudy
7:30 AM14.0 °F6.8 °F73 %30.27 in15.0 miWest (260°)6.9 mphOvercast
8:30 AM14.0 °F6.8 °F73 %30.27 in15.0 miWest (260°)4.6 mphOvercast
8:30 AM15.0 °F7.0 °F60 %30.27 in15.0 miWest (260°)5.8 mphOvercast
9:30 AM15.8 °F8.6 °F73 %30.27 in15.0 miWSW (240°)4.6 mphOvercast
10:30 AM15.8 °F8.6 °F73 %30.27 in15.0 miSW (220°)3.5 mphOvercast
11:30 AM17.6 °F10.4 °F73 %30.22 in15.0 miSouth (180°)5.8 mphOvercast
12:30 PM17.6 °F12.2 °F79 %30.19 in15.0 miSouth (170°)9.2 mphOvercast
1:01 PM17.6 °F12.2 °F79 %30.14 in10.0 miSSE (150°)10.4 mphSnowLight Snow Showers
1:22 PM17.6 °F14.0 °F86 %30.15 in1.5 miSouth (180°)10.4 mphSnowLight Snow
1:30 PM17.6 °F14.0 °F86 %30.15 in1.5 miSouth (190°)6.9 mphSnowLight Snow
1:56 PM17.6 °F15.8 °F93 %30.12 in0.6 miSouth (180°)4.6 mphSnowLight Snow
2:30 PM17.6 °F15.8 °F93 %30.07 in0.6 miSSE (150°)6.9 mphSnowLight Snow
2:30 PM18.0 °F16.0 °F87 %30.08 in1.0 miSSE (160°)5.8 mphSnowLight Snow
3:15 PM17.6 °F15.8 °F93 %30.04 in0.2 miSSE (160°)6.9 mphSnowHeavy Snow
3:30 PM17.6 °F15.8 °F93 %30.03 in0.5 miSSE (150°)4.6 mphSnowSnow
4:13 PM17.6 °F15.8 °F93 %29.98 in0.8 miSE (130°)6.9 mphSnowLight Snow
4:30 PM17.6 °F15.8 °F93 %29.98 in1.0 miSSE (150°)6.9 mphSnowLight Snow
5:30 PM17.6 °F15.8 °F93 %29.95 in1.5 miCalmSnowLight Snow
6:30 PM19.4 °F17.6 °F93 %29.86 in1.0 miEast (100°)6.9 mphSnowLight Snow
7:07 PM19.4 °F17.6 °F93 %29.84 in0.5 miEast (90°)5.8 mphSnowSnow
7:15 PM19.4 °F17.6 °F93 %29.81 in0.6 miEast (90°)6.9 mphSnowLight Snow
7:30 PM19.4 °F17.6 °F93 %29.74 in0.6 miEast (90°)9.2 mphSnowLight Snow
7:35 PM19.4 °F17.6 °F93 %29.75 in1.0 miEast (100°)8.1 mphSnowLight Snow
8:01 PM19.4 °F19.4 °F100 %29.70 in1.2 miEast (100°)11.5 mphSnowLight Snow
8:30 PM21.0 °F19.0 °F89 %29.68 in1.0 miEast (90°)12.7 mphSnowLight Snow
8:30 PM21.2 °F19.4 °F93 %29.68 in1.0 miEast (90°)13.8 mphSnowLight Snow
8:56 PM21.2 °F19.4 °F93 %29.65 in0.8 miENE (70°)15.0 mphSnowLight Snow
9:30 PM21.2 °F19.4 °F93 %29.60 in0.8 miENE (70°)13.8 mph24.2 mphSnowLight Snow
10:30 PM19.4 °F17.6 °F93 %29.55 in0.8 miNE (40°)16.1 mph23.0 mphSnowLight Snow
11:04 PM19.4 °F17.6 °F93 %29.55 in1.5 miNE (40°)15.0 mphSnowLight Snow
11:30 PM19.4 °F17.6 °F93 %29.59 in8.0 miNNE (20°)12.7 mph24.2 mphSnowLight Snow
Hourly data recorded from CYYT, located miles away from St. John's, Newfoundland







STORIES FROM OUR PARTNERS